Welcome to Northern Hawkes Bay. New Zealand.
PWS Header
      nz Flag



Hit Counter


W3C Valid W3C Valid logo


    Wairoa

Select any of the Stations below to visit their websites.










Historic Data from Weather Underground
Select the location of interest below. Wairoa is the default. Please have patience, this Data is slow to load in.
Northern Hawkes Bay Historical Data
Daily Summary for November 26, 2017 Units:  Metric    English   Both
« Previous Day
Next Day »
Daily Weekly Monthly Yearly Custom
  High: Low: Average:
Temperature: 20.5 °C 14.4 °C 17.2 °C
Dew Point: 17.1 °C 14.3 °C 15.8 °C
Humidity: 99% 79% 92%
Wind Speed: 11.1km/h 0.0km/h 2.2km/h
Wind Gust: 14.8km/h - -
Wind- - SSW
Pressure: 1027.0 hPa 1024.9 hPa -
Precipitation: 0.0 mm    
Historical Graphs
 
 
Tabular Data for November 26, 2017
Time Temperature Dew Point Pressure Wind Wind Speed Wind Gust Humidity Rainfall Rate (Hourly) solar
00:01 14.9 °C 14.8 °C 1026.6 hPa NNW 2.6 km/h 5.0 km/h 99% 0.0 mm 0 W/m2
00:06 14.8 °C 14.7 °C 1026.6 hPa NW 2.6 km/h 5.0 km/h 99% 0.0 mm 0 W/m2
00:12 14.7 °C 14.6 °C 1026.6 hPa Calm   5.0 km/h 99% 0.0 mm 0 W/m2
00:16 14.7 °C 14.6 °C 1026.6 hPa NW 2.6 km/h 3.5 km/h 99% 0.0 mm 0 W/m2
00:22 14.6 °C 14.4 °C 1026.3 hPa Calm   3.5 km/h 99% 0.0 mm 0 W/m2
00:27 14.5 °C 14.3 °C 1026.6 hPa North 1.1 km/h 3.5 km/h 99% 0.0 mm 0 W/m2
00:32 14.5 °C 14.3 °C 1026.3 hPa Calm   2.6 km/h 99% 0.0 mm 0 W/m2
00:37 14.4 °C 14.3 °C 1026.3 hPa Calm   2.6 km/h 99% 0.0 mm 0 W/m2
00:42 14.4 °C 14.3 °C 1026.3 hPa Calm     99% 0.0 mm 0 W/m2
00:47 14.4 °C 14.3 °C 1026.3 hPa Calm     99% 0.0 mm 0 W/m2
00:52 14.5 °C 14.3 °C 1026.3 hPa Calm   2.6 km/h 99% 0.0 mm 0 W/m2
00:57 14.5 °C 14.3 °C 1026.3 hPa NW 1.1 km/h 3.5 km/h 99% 0.0 mm 0 W/m2
01:02 14.5 °C 14.3 °C 1026.3 hPa NW 1.1 km/h 5.0 km/h 99% 0.0 mm 0 W/m2
01:07 14.5 °C 14.3 °C 1026.3 hPa NW 1.1 km/h 6.1 km/h 99% 0.0 mm 0 W/m2
01:12 14.5 °C 14.3 °C 1026.3 hPa NW 3.5 km/h 6.1 km/h 99% 0.0 mm 0 W/m2
01:17 14.5 °C 14.3 °C 1026.3 hPa NW 3.5 km/h 6.1 km/h 99% 0.0 mm 0 W/m2
01:22 14.5 °C 14.3 °C 1026.3 hPa Calm   6.1 km/h 99% 0.0 mm 0 W/m2
01:27 14.5 °C 14.3 °C 1026.0 hPa Calm   5.0 km/h 99% 0.0 mm 0 W/m2
01:32 14.5 °C 14.3 °C 1026.3 hPa NNW 1.1 km/h 5.0 km/h 99% 0.0 mm 0 W/m2
01:37 14.5 °C 14.3 °C 1026.0 hPa NW 1.1 km/h 5.0 km/h 99% 0.0 mm 0 W/m2
01:42 14.5 °C 14.3 °C 1026.0 hPa Calm   3.5 km/h 99% 0.0 mm 0 W/m2
01:47 14.6 °C 14.4 °C 1026.3 hPa NNW 1.1 km/h 5.0 km/h 99% 0.0 mm 0 W/m2
01:52 14.6 °C 14.4 °C 1026.0 hPa NW 1.1 km/h 5.0 km/h 99% 0.0 mm 0 W/m2
01:57 14.6 °C 14.4 °C 1026.3 hPa NW 1.1 km/h 5.0 km/h 99% 0.0 mm 0 W/m2
02:02 14.7 °C 14.6 °C 1026.3 hPa NW 1.1 km/h 3.5 km/h 99% 0.0 mm 0 W/m2
02:07 14.7 °C 14.6 °C 1026.0 hPa Calm   3.5 km/h 99% 0.0 mm 0 W/m2
02:12 14.7 °C 14.6 °C 1026.0 hPa Calm   2.6 km/h 99% 0.0 mm 0 W/m2
02:17 14.7 °C 14.6 °C 1026.0 hPa Calm     99% 0.0 mm 0 W/m2
02:22 14.7 °C 14.6 °C 1026.0 hPa Calm     99% 0.0 mm 0 W/m2
02:27 14.8 °C 14.7 °C 1026.0 hPa Calm   3.5 km/h 99% 0.0 mm 0 W/m2
02:32 14.9 °C 14.8 °C 1026.0 hPa Calm   3.5 km/h 99% 0.0 mm 0 W/m2
02:37 14.9 °C 14.8 °C 1026.0 hPa Calm   2.6 km/h 99% 0.0 mm 0 W/m2
02:42 14.9 °C 14.8 °C 1026.0 hPa Calm     99% 0.0 mm 0 W/m2
02:47 15.0 °C 14.8 °C 1026.0 hPa Calm     99% 0.0 mm 0 W/m2
02:52 15.0 °C 14.8 °C 1025.6 hPa Calm     99% 0.0 mm 0 W/m2
02:57 15.0 °C 14.8 °C 1025.6 hPa Calm     99% 0.0 mm 0 W/m2
03:02 15.1 °C 14.9 °C 1025.6 hPa NNW 2.6 km/h 5.0 km/h 99% 0.0 mm 0 W/m2
03:07 15.1 °C 14.9 °C 1026.0 hPa NW 1.1 km/h 5.0 km/h 99% 0.0 mm 0 W/m2
03:12 15.1 °C 14.9 °C 1026.0 hPa Calm   5.0 km/h 99% 0.0 mm 0 W/m2
03:17 15.1 °C 14.9 °C 1025.6 hPa Calm   3.5 km/h 99% 0.0 mm 0 W/m2
03:22 15.1 °C 14.9 °C 1026.0 hPa NW 1.1 km/h 3.5 km/h 99% 0.0 mm 0 W/m2
03:27 15.1 °C 14.9 °C 1025.6 hPa Calm   3.5 km/h 99% 0.0 mm 0 W/m2
03:32 15.1 °C 14.9 °C 1025.6 hPa Calm   2.6 km/h 99% 0.0 mm 0 W/m2
03:37 15.1 °C 14.9 °C 1026.0 hPa Calm   1.1 km/h 99% 0.0 mm 0 W/m2
03:42 15.1 °C 14.9 °C 1025.6 hPa Calm   2.6 km/h 99% 0.0 mm 0 W/m2
03:47 15.1 °C 14.9 °C 1025.6 hPa Calm   2.6 km/h 99% 0.0 mm 0 W/m2
03:52 15.1 °C 14.9 °C 1025.6 hPa Calm   3.5 km/h 99% 0.0 mm 0 W/m2
03:57 15.1 °C 14.9 °C 1025.6 hPa Calm   3.5 km/h 99% 0.0 mm 0 W/m2
04:02 15.1 °C 14.9 °C 1025.6 hPa Calm   1.1 km/h 99% 0.0 mm 0 W/m2
04:07 15.1 °C 14.9 °C 1025.6 hPa NW 1.1 km/h 2.6 km/h 99% 0.0 mm 0 W/m2
04:12 15.0 °C 14.8 °C 1025.6 hPa NW 2.6 km/h 3.5 km/h 99% 0.0 mm 0 W/m2
04:17 15.0 °C 14.8 °C 1025.6 hPa NW 1.1 km/h 3.5 km/h 99% 0.0 mm 0 W/m2
04:21 15.1 °C 14.9 °C 1025.6 hPa NW 3.5 km/h 5.0 km/h 99% 0.0 mm 0 W/m2
04:26 15.0 °C 14.8 °C 1025.6 hPa NW 1.1 km/h 5.0 km/h 99% 0.0 mm 0 W/m2
04:31 15.0 °C 14.8 °C 1025.3 hPa NNW 3.5 km/h 5.0 km/h 99% 0.0 mm 0 W/m2
04:36 15.0 °C 14.8 °C 1025.6 hPa Calm   6.1 km/h 99% 0.0 mm 0 W/m2
04:41 15.0 °C 14.8 °C 1025.6 hPa Calm   6.1 km/h 99% 0.0 mm 0 W/m2
04:46 15.0 °C 14.8 °C 1025.6 hPa Calm   3.5 km/h 99% 0.0 mm 0 W/m2
04:51 15.0 °C 14.8 °C 1025.3 hPa NNW 1.1 km/h 3.5 km/h 99% 0.0 mm 0 W/m2
04:56 15.0 °C 14.8 °C 1025.6 hPa Calm   3.5 km/h 99% 0.0 mm 0 W/m2
05:01 15.1 °C 14.9 °C 1025.3 hPa Calm   3.5 km/h 99% 0.0 mm 0 W/m2
05:07 15.1 °C 14.9 °C 1025.6 hPa NW 1.1 km/h 3.5 km/h 99% 0.0 mm 0 W/m2
05:12 15.1 °C 14.9 °C 1025.6 hPa NNW 1.1 km/h 3.5 km/h 99% 0.0 mm 0 W/m2
05:17 15.1 °C 14.9 °C 1025.6 hPa Calm   3.5 km/h 99% 0.0 mm 0 W/m2
05:22 15.1 °C 14.9 °C 1025.6 hPa NW 1.1 km/h 3.5 km/h 99% 0.0 mm 0 W/m2
05:27 15.1 °C 14.9 °C 1025.6 hPa Calm   3.5 km/h 99% 0.0 mm 0 W/m2
05:32 15.1 °C 14.9 °C 1025.6 hPa NW 2.6 km/h 3.5 km/h 99% 0.0 mm 0 W/m2
05:37 15.1 °C 14.9 °C 1025.6 hPa NW 1.1 km/h 3.5 km/h 99% 0.0 mm 0 W/m2
05:42 15.1 °C 14.9 °C 1025.6 hPa Calm   3.5 km/h 99% 0.0 mm 0 W/m2
05:47 15.1 °C 14.9 °C 1026.0 hPa North 1.1 km/h 3.5 km/h 99% 0.0 mm 0 W/m2
05:57 15.1 °C 14.9 °C 1026.0 hPa NNW 2.6 km/h 5.0 km/h 99% 0.0 mm 0 W/m2
06:02 15.1 °C 14.9 °C 1026.0 hPa NNW 1.1 km/h 5.0 km/h 99% 0.0 mm 0 W/m2
06:07 15.1 °C 14.9 °C 1026.0 hPa Calm   5.0 km/h 99% 0.0 mm 0 W/m2
06:12 15.1 °C 14.9 °C 1026.0 hPa North 1.1 km/h 3.5 km/h 99% 0.0 mm 1 W/m2
06:17 15.1 °C 14.9 °C 1026.0 hPa NNW 2.6 km/h 5.0 km/h 99% 0.0 mm 1 W/m2
06:22 15.1 °C 14.9 °C 1026.0 hPa NNW 3.5 km/h 6.1 km/h 99% 0.0 mm 2 W/m2
06:27 15.2 °C 15.1 °C 1026.0 hPa NNW 2.6 km/h 6.1 km/h 99% 0.0 mm 3 W/m2
06:32 15.2 °C 14.9 °C 1026.0 hPa Calm   6.1 km/h 98% 0.0 mm 4 W/m2
06:37 15.2 °C 14.9 °C 1026.0 hPa NW 2.6 km/h 6.1 km/h 98% 0.0 mm 5 W/m2
06:42 15.2 °C 14.9 °C 1026.0 hPa NW 2.6 km/h 5.0 km/h 98% 0.0 mm 7 W/m2
06:47 15.2 °C 14.9 °C 1026.0 hPa NW 2.6 km/h 5.0 km/h 98% 0.0 mm 8 W/m2
06:52 15.2 °C 14.9 °C 1026.0 hPa NW 2.6 km/h 6.1 km/h 98% 0.0 mm 10 W/m2
06:57 15.2 °C 14.9 °C 1026.0 hPa NW 1.1 km/h 7.2 km/h 98% 0.0 mm 12 W/m2
07:02 15.2 °C 14.9 °C 1026.0 hPa NNW 3.5 km/h 7.2 km/h 98% 0.0 mm 12 W/m2
07:07 15.2 °C 14.9 °C 1026.0 hPa Calm   5.0 km/h 98% 0.0 mm 13 W/m2
07:12 15.3 °C 15.2 °C 1026.3 hPa Calm   5.0 km/h 99% 0.0 mm 14 W/m2
07:17 15.4 °C 15.3 °C 1026.0 hPa NNW 2.6 km/h 3.5 km/h 99% 0.0 mm 17 W/m2
07:22 15.4 °C 15.3 °C 1026.3 hPa Calm   3.5 km/h 99% 0.0 mm 18 W/m2
07:27 15.4 °C 15.3 °C 1026.3 hPa Calm   3.5 km/h 99% 0.0 mm 20 W/m2
07:32 15.4 °C 15.3 °C 1026.3 hPa NNW 1.1 km/h 3.5 km/h 99% 0.0 mm 22 W/m2
07:37 15.5 °C 15.3 °C 1026.0 hPa NNW 1.1 km/h 3.5 km/h 99% 0.0 mm 25 W/m2
07:42 15.5 °C 15.3 °C 1026.3 hPa Calm   3.5 km/h 99% 0.0 mm 29 W/m2
07:47 15.6 °C 15.4 °C 1026.3 hPa Calm   3.5 km/h 99% 0.0 mm 33 W/m2
07:52 15.6 °C 15.4 °C 1026.6 hPa Calm   2.6 km/h 99% 0.0 mm 37 W/m2
07:53 15.6 °C 15.4 °C 1026.6 hPa NW 1.1 km/h 2.6 km/h 99% 0.0 mm 38 W/m2
07:58 15.7 °C 15.6 °C 1026.3 hPa NNW 2.6 km/h 3.5 km/h 99% 0.0 mm 42 W/m2
08:03 15.7 °C 15.6 °C 1026.6 hPa NNW 1.1 km/h 3.5 km/h 99% 0.0 mm 49 W/m2
08:08 15.8 °C 15.7 °C 1026.3 hPa NNW 1.1 km/h 3.5 km/h 99% 0.0 mm 61 W/m2
08:13 15.9 °C 15.8 °C 1026.6 hPa NW 1.1 km/h 3.5 km/h 99% 0.0 mm 75 W/m2
08:18 16.0 °C 15.6 °C 1026.6 hPa Calm   3.5 km/h 97% 0.0 mm 90 W/m2
08:23 16.2 °C 15.7 °C 1026.6 hPa Calm   3.5 km/h 97% 0.0 mm 96 W/m2
08:28 16.3 °C 15.8 °C 1026.3 hPa NW 1.1 km/h 2.6 km/h 97% 0.0 mm 96 W/m2
08:33 16.5 °C 16.1 °C 1026.6 hPa WNW 1.1 km/h 2.6 km/h 97% 0.0 mm 93 W/m2
08:38 16.6 °C 15.9 °C 1026.6 hPa Calm   3.5 km/h 96% 0.0 mm 94 W/m2
08:43 16.8 °C 16.2 °C 1026.6 hPa Calm   3.5 km/h 96% 0.0 mm 91 W/m2
08:48 16.9 °C 16.1 °C 1026.6 hPa SSW 1.1 km/h 2.6 km/h 95% 0.0 mm 86 W/m2
08:53 16.9 °C 16.1 °C 1026.6 hPa SSW 1.1 km/h 3.5 km/h 95% 0.0 mm 83 W/m2
08:58 17.0 °C 15.9 °C 1026.6 hPa South 1.1 km/h 3.5 km/h 93% 0.0 mm 77 W/m2
09:04 16.9 °C 15.9 °C 1027.0 hPa Calm   3.5 km/h 94% 0.0 mm 76 W/m2
09:09 16.9 °C 15.9 °C 1027.0 hPa Calm   2.6 km/h 94% 0.0 mm 80 W/m2
09:14 16.8 °C 15.8 °C 1027.0 hPa Calm   3.5 km/h 94% 0.0 mm 78 W/m2
09:19 16.6 °C 15.7 °C 1027.0 hPa Calm   3.5 km/h 94% 0.0 mm 71 W/m2
09:24 16.8 °C 16.0 °C 1027.0 hPa Calm     95% 0.0 mm 79 W/m2
09:29 16.9 °C 16.1 °C 1027.0 hPa Calm     95% 0.0 mm 89 W/m2
09:34 17.1 °C 16.3 °C 1027.0 hPa Calm     95% 0.0 mm 101 W/m2
09:39 17.3 °C 16.5 °C 1027.0 hPa Calm   1.1 km/h 95% 0.0 mm 103 W/m2
09:44 17.5 °C 16.6 °C 1027.0 hPa SSE 1.1 km/h 3.5 km/h 94% 0.0 mm 136 W/m2
09:49 17.6 °C 16.6 °C 1027.0 hPa Calm   3.5 km/h 94% 0.0 mm 166 W/m2
09:54 17.7 °C 16.6 °C 1027.0 hPa SSE 1.1 km/h 3.5 km/h 93% 0.0 mm 185 W/m2
09:59 18.0 °C 17.1 °C 1027.0 hPa Calm   7.2 km/h 94% 0.0 mm 252 W/m2
10:04 18.2 °C 17.1 °C 1027.0 hPa SSW 5.0 km/h 7.2 km/h 93% 0.0 mm 276 W/m2
10:09 18.4 °C 16.9 °C 1027.0 hPa SSW 5.0 km/h 7.2 km/h 91% 0.0 mm 244 W/m2
10:14 18.3 °C 16.4 °C 1027.0 hPa South 3.5 km/h 7.2 km/h 89% 0.0 mm 214 W/m2
10:19 18.4 °C 16.6 °C 1027.0 hPa South 5.0 km/h 8.7 km/h 89% 0.0 mm 206 W/m2
10:25 18.3 °C 16.3 °C 1027.0 hPa South 5.0 km/h 8.7 km/h 88% 0.0 mm 189 W/m2
10:30 18.0 °C 16.2 °C 1027.0 hPa SSW 3.5 km/h 8.7 km/h 89% 0.0 mm 181 W/m2
10:35 17.9 °C 16.1 °C 1027.0 hPa SSW 3.5 km/h 8.7 km/h 89% 0.0 mm 171 W/m2
10:40 17.8 °C 16.2 °C 1027.0 hPa SSW 3.5 km/h 8.7 km/h 90% 0.0 mm 166 W/m2
10:45 17.8 °C 16.3 °C 1027.0 hPa South 6.1 km/h 9.7 km/h 91% 0.0 mm 170 W/m2
10:50 17.8 °C 16.3 °C 1027.0 hPa South 1.1 km/h 9.7 km/h 91% 0.0 mm 163 W/m2
10:55 18.0 °C 16.7 °C 1027.0 hPa South 3.5 km/h 7.2 km/h 92% 0.0 mm 173 W/m2
11:00 18.0 °C 16.5 °C 1027.0 hPa South 3.5 km/h 7.2 km/h 91% 0.0 mm 174 W/m2
11:05 17.9 °C 16.4 °C 1027.0 hPa SSE 3.5 km/h 7.2 km/h 91% 0.0 mm 175 W/m2
11:10 17.9 °C 16.2 °C 1027.0 hPa SSE 2.6 km/h 9.7 km/h 90% 0.0 mm 185 W/m2
11:16 17.8 °C 16.2 °C 1027.0 hPa South 5.0 km/h 9.7 km/h 90% 0.0 mm 195 W/m2
11:21 17.8 °C 16.3 °C 1027.0 hPa SSW 2.6 km/h 8.7 km/h 91% 0.0 mm 192 W/m2
11:26 17.9 °C 16.4 °C 1027.0 hPa SW 5.0 km/h 8.7 km/h 91% 0.0 mm 192 W/m2
11:31 18.1 °C 16.4 °C 1027.0 hPa SSW 6.1 km/h 8.7 km/h 90% 0.0 mm 216 W/m2
11:36 18.3 °C 16.7 °C 1027.0 hPa South 5.0 km/h 8.7 km/h 90% 0.0 mm 226 W/m2
11:46 18.2 °C 16.4 °C 1027.0 hPa SSW 2.6 km/h 9.7 km/h 89% 0.0 mm 222 W/m2
11:51 18.3 °C 16.4 °C 1027.0 hPa South 5.0 km/h 12.2 km/h 89% 0.0 mm 232 W/m2
11:57 18.4 °C 16.6 °C 1027.0 hPa South 5.0 km/h 12.2 km/h 89% 0.0 mm 270 W/m2
12:02 18.4 °C 16.4 °C 1027.0 hPa South 6.1 km/h 9.7 km/h 88% 0.0 mm 308 W/m2
12:07 18.6 °C 16.6 °C 1027.0 hPa South 3.5 km/h 11.1 km/h 88% 0.0 mm 311 W/m2
12:12 18.5 °C 16.5 °C 1027.0 hPa South 6.1 km/h 12.2 km/h 88% 0.0 mm 279 W/m2
12:17 18.6 °C 16.8 °C 1027.0 hPa SSW 8.7 km/h 12.2 km/h 89% 0.0 mm 281 W/m2
12:22 18.5 °C 16.7 °C 1027.0 hPa SSW 7.2 km/h 12.2 km/h 89% 0.0 mm 279 W/m2
12:27 18.8 °C 16.9 °C 1027.0 hPa South 1.1 km/h 12.2 km/h 89% 0.0 mm 266 W/m2
12:32 19.0 °C 16.8 °C 1027.0 hPa South 6.1 km/h 12.2 km/h 87% 0.0 mm 248 W/m2
12:37 18.8 °C 16.8 °C 1027.0 hPa South 7.2 km/h 12.2 km/h 88% 0.0 mm 213 W/m2
12:42 18.6 °C 16.4 °C 1027.0 hPa South 3.5 km/h 12.2 km/h 87% 0.0 mm 232 W/m2
12:47 18.9 °C 16.7 °C 1027.0 hPa SSE 6.1 km/h 12.2 km/h 87% 0.0 mm 283 W/m2
12:52 19.2 °C 16.8 °C 1026.6 hPa SSE 3.5 km/h 8.7 km/h 86% 0.0 mm 300 W/m2
12:57 19.6 °C 17.0 °C 1027.0 hPa SE 3.5 km/h 8.7 km/h 85% 0.0 mm 312 W/m2
13:07 18.9 °C 16.3 °C 1026.6 hPa South 6.1 km/h 14.8 km/h 85% 0.0 mm 331 W/m2
13:12 19.3 °C 16.7 °C 1027.0 hPa SSE 3.5 km/h 14.8 km/h 85% 0.0 mm 347 W/m2
13:17 19.8 °C 17.1 °C 1026.6 hPa SE 5.0 km/h 12.2 km/h 84% 0.0 mm 410 W/m2
13:22 20.2 °C 17.1 °C 1026.6 hPa SE 3.5 km/h 12.2 km/h 82% 0.0 mm 386 W/m2
13:27 20.5 °C 16.9 °C 1026.6 hPa SE 3.5 km/h 9.7 km/h 80% 0.0 mm 367 W/m2
13:32 20.5 °C 16.9 °C 1026.6 hPa ESE 5.0 km/h 8.7 km/h 80% 0.0 mm 352 W/m2
13:37 20.2 °C 16.4 °C 1026.6 hPa SE 3.5 km/h 8.7 km/h 79% 0.0 mm 351 W/m2
13:42 20.2 °C 16.7 °C 1026.3 hPa Calm   8.7 km/h 80% 0.0 mm 343 W/m2
13:47 20.2 °C 16.7 °C 1026.6 hPa SE 3.5 km/h 8.7 km/h 80% 0.0 mm 340 W/m2
13:52 20.5 °C 16.9 °C 1026.6 hPa SE 2.6 km/h 8.7 km/h 80% 0.0 mm 359 W/m2
13:57 20.1 °C 16.3 °C 1026.3 hPa ESE 5.0 km/h 11.1 km/h 79% 0.0 mm 326 W/m2
14:02 19.8 °C 16.7 °C 1026.6 hPa SE 2.6 km/h 11.1 km/h 82% 0.0 mm 290 W/m2
14:07 20.1 °C 16.9 °C 1026.3 hPa SSE 5.0 km/h 11.1 km/h 82% 0.0 mm 303 W/m2
14:12 19.8 °C 16.4 °C 1026.3 hPa SSE 11.1 km/h 12.2 km/h 81% 0.0 mm 304 W/m2
14:17 19.6 °C 16.4 °C 1026.3 hPa South 3.5 km/h 12.2 km/h 82% 0.0 mm 336 W/m2
14:22 19.9 °C 16.6 °C 1026.3 hPa SSE 1.1 km/h 12.2 km/h 81% 0.0 mm 302 W/m2
14:27 19.7 °C 16.6 °C 1026.3 hPa SE 1.1 km/h 13.4 km/h 82% 0.0 mm 306 W/m2
14:32 19.7 °C 16.6 °C 1026.3 hPa SSE 2.6 km/h 13.4 km/h 82% 0.0 mm 290 W/m2
14:37 19.6 °C 16.7 °C 1026.6 hPa SSE 3.5 km/h 12.2 km/h 83% 0.0 mm 310 W/m2
14:42 19.6 °C 16.4 °C 1026.3 hPa SSE 3.5 km/h 9.7 km/h 82% 0.0 mm 338 W/m2
14:47 19.6 °C 16.7 °C 1026.3 hPa SSE 1.1 km/h 12.2 km/h 83% 0.0 mm 318 W/m2
14:52 19.8 °C 16.8 °C 1026.3 hPa South 3.5 km/h 12.2 km/h 83% 0.0 mm 302 W/m2
14:57 19.6 °C 16.4 °C 1026.3 hPa South 6.1 km/h 12.2 km/h 82% 0.0 mm 327 W/m2
15:02 19.5 °C 16.7 °C 1026.3 hPa South 1.1 km/h 13.4 km/h 84% 0.0 mm 373 W/m2
15:07 20.0 °C 17.1 °C 1026.3 hPa SSE 5.0 km/h 13.4 km/h 83% 0.0 mm 380 W/m2
15:12 20.2 °C 16.8 °C 1026.3 hPa SSE 3.5 km/h 9.7 km/h 81% 0.0 mm 333 W/m2
15:17 20.2 °C 16.8 °C 1026.3 hPa SE 3.5 km/h 11.1 km/h 81% 0.0 mm 330 W/m2
15:22 20.2 °C 16.8 °C 1026.0 hPa SE 3.5 km/h 12.2 km/h 81% 0.0 mm 330 W/m2
15:27 20.1 °C 16.6 °C 1026.0 hPa SE 6.1 km/h 13.4 km/h 80% 0.0 mm 316 W/m2
15:32 19.8 °C 16.8 °C 1026.0 hPa SSE 5.0 km/h 13.4 km/h 83% 0.0 mm 303 W/m2
15:37 19.9 °C 17.1 °C 1026.0 hPa SE 6.1 km/h 12.2 km/h 84% 0.0 mm 370 W/m2
15:42 20.1 °C 17.1 °C 1026.0 hPa SE 2.6 km/h 13.4 km/h 83% 0.0 mm 400 W/m2
15:47 20.2 °C 17.1 °C 1026.0 hPa SE 6.1 km/h 13.4 km/h 82% 0.0 mm 366 W/m2
15:52 20.2 °C 16.8 °C 1026.0 hPa SSE 5.0 km/h 13.4 km/h 81% 0.0 mm 356 W/m2
15:57 20.5 °C 16.9 °C 1026.0 hPa SSE 2.6 km/h 13.4 km/h 80% 0.0 mm 341 W/m2
16:02 20.2 °C 16.7 °C 1026.0 hPa SSE 5.0 km/h 11.1 km/h 80% 0.0 mm 275 W/m2
16:07 20.0 °C 16.4 °C 1025.6 hPa SSE 7.2 km/h 13.4 km/h 80% 0.0 mm 269 W/m2
16:12 20.0 °C 16.7 °C 1025.6 hPa SSE 5.0 km/h 13.4 km/h 81% 0.0 mm 269 W/m2
16:17 20.1 °C 16.8 °C 1025.6 hPa SE 6.1 km/h 13.4 km/h 81% 0.0 mm 234 W/m2
16:22 19.9 °C 16.7 °C 1025.6 hPa SE 7.2 km/h 13.4 km/h 82% 0.0 mm 198 W/m2
16:27 19.5 °C 16.6 °C 1025.6 hPa SSE 6.1 km/h 11.1 km/h 83% 0.0 mm 190 W/m2
16:32 19.3 °C 16.6 °C 1025.6 hPa SSE 5.0 km/h 11.1 km/h 84% 0.0 mm 193 W/m2
16:37 19.3 °C 16.7 °C 1025.6 hPa SSE 8.7 km/h 11.1 km/h 85% 0.0 mm 196 W/m2
16:42 19.2 °C 16.6 °C 1025.6 hPa SSE 3.5 km/h 11.1 km/h 85% 0.0 mm 201 W/m2
16:47 19.2 °C 16.6 °C 1025.3 hPa South 5.0 km/h 11.1 km/h 85% 0.0 mm 196 W/m2
16:52 19.1 °C 16.6 °C 1025.6 hPa SSE 2.6 km/h 12.2 km/h 85% 0.0 mm 190 W/m2
16:57 19.1 °C 16.6 °C 1025.6 hPa SE 3.5 km/h 14.8 km/h 85% 0.0 mm 181 W/m2
17:02 19.1 °C 16.6 °C 1025.3 hPa SE 3.5 km/h 14.8 km/h 85% 0.0 mm 175 W/m2
17:07 19.0 °C 16.4 °C 1025.6 hPa SE 6.1 km/h 12.2 km/h 85% 0.0 mm 171 W/m2
17:12 18.8 °C 16.6 °C 1025.3 hPa SSE 3.5 km/h 12.2 km/h 87% 0.0 mm 176 W/m2
17:17 18.9 °C 16.9 °C 1025.3 hPa SSE 2.6 km/h 11.1 km/h 88% 0.0 mm 170 W/m2
17:22 18.9 °C 16.7 °C 1025.3 hPa SE 3.5 km/h 11.1 km/h 87% 0.0 mm 156 W/m2
17:27 18.8 °C 16.6 °C 1025.3 hPa SE 3.5 km/h 11.1 km/h 87% 0.0 mm 156 W/m2
17:29 18.8 °C 16.6 °C 1025.3 hPa SSE 2.6 km/h 11.1 km/h 87% 0.0 mm 158 W/m2
17:34 19.0 °C 16.6 °C 1025.3 hPa SSE 3.5 km/h 11.1 km/h 86% 0.0 mm 158 W/m2
17:39 19.1 °C 16.6 °C 1025.3 hPa SSE 7.2 km/h 12.2 km/h 85% 0.0 mm 155 W/m2
17:44 18.9 °C 16.3 °C 1024.9 hPa SSE 3.5 km/h 12.2 km/h 85% 0.0 mm 147 W/m2
17:54 19.1 °C 16.7 °C 1025.3 hPa SSE 2.6 km/h 12.2 km/h 86% 0.0 mm 128 W/m2
17:59 19.0 °C 16.6 °C 1025.3 hPa SSE 2.6 km/h 11.1 km/h 86% 0.0 mm 121 W/m2
18:04 19.0 °C 16.8 °C 1025.3 hPa South 5.0 km/h 9.7 km/h 87% 0.0 mm 117 W/m2
18:09 19.0 °C 16.8 °C 1025.3 hPa SE 5.0 km/h 11.1 km/h 87% 0.0 mm 113 W/m2
18:14 19.0 °C 16.6 °C 1025.3 hPa SE 1.1 km/h 11.1 km/h 86% 0.0 mm 108 W/m2
18:19 19.0 °C 16.6 °C 1024.9 hPa SE 2.6 km/h 9.7 km/h 86% 0.0 mm 104 W/m2
18:24 19.1 °C 16.7 °C 1025.3 hPa ESE 5.0 km/h 11.1 km/h 86% 0.0 mm 103 W/m2
18:29 18.9 °C 16.7 °C 1025.3 hPa ESE 5.0 km/h 11.1 km/h 87% 0.0 mm 99 W/m2
18:34 18.8 °C 16.6 °C 1025.3 hPa ESE 2.6 km/h 11.1 km/h 87% 0.0 mm 94 W/m2
18:39 18.8 °C 16.6 °C 1024.9 hPa ESE 3.5 km/h 11.1 km/h 87% 0.0 mm 92 W/m2
18:44 18.8 °C 16.8 °C 1024.9 hPa SE 6.1 km/h 8.7 km/h 88% 0.0 mm 87 W/m2
18:49 18.7 °C 16.7 °C 1025.3 hPa SE 5.0 km/h 9.7 km/h 88% 0.0 mm 82 W/m2
18:54 18.7 °C 16.7 °C 1025.3 hPa ESE 5.0 km/h 9.7 km/h 88% 0.0 mm 77 W/m2
18:59 18.6 °C 16.6 °C 1025.3 hPa ESE 5.0 km/h 9.7 km/h 88% 0.0 mm 72 W/m2
19:04 18.6 °C 16.6 °C 1025.3 hPa SE 3.5 km/h 11.1 km/h 88% 0.0 mm 66 W/m2
19:09 18.5 °C 16.5 °C 1025.3 hPa SE 3.5 km/h 11.1 km/h 88% 0.0 mm 58 W/m2
19:14 18.5 °C 16.5 °C 1025.3 hPa SE 1.1 km/h 9.7 km/h 88% 0.0 mm 50 W/m2
19:19 18.5 °C 16.5 °C 1025.6 hPa SE 2.6 km/h 7.2 km/h 88% 0.0 mm 44 W/m2
19:24 18.4 °C 16.4 °C 1025.3 hPa SE 1.1 km/h 7.2 km/h 88% 0.0 mm 38 W/m2
19:29 18.4 °C 16.4 °C 1025.3 hPa SE 2.6 km/h 7.2 km/h 88% 0.0 mm 32 W/m2
19:34 18.3 °C 16.3 °C 1025.3 hPa SE 5.0 km/h 7.2 km/h 88% 0.0 mm 27 W/m2
19:39 18.2 °C 16.2 °C 1025.3 hPa SE 2.6 km/h 9.7 km/h 88% 0.0 mm 20 W/m2
19:44 18.1 °C 16.1 °C 1025.6 hPa Calm   9.7 km/h 88% 0.0 mm 11 W/m2
19:49 18.0 °C 16.0 °C 1025.6 hPa ESE 3.5 km/h 8.7 km/h 88% 0.0 mm 7 W/m2
19:54 17.9 °C 15.9 °C 1025.6 hPa SE 2.6 km/h 11.1 km/h 88% 0.0 mm 3 W/m2
19:59 17.8 °C 15.8 °C 1025.6 hPa SE 3.5 km/h 11.1 km/h 88% 0.0 mm 0 W/m2
20:04 17.7 °C 15.7 °C 1025.3 hPa SE 6.1 km/h 11.1 km/h 88% 0.0 mm 0 W/m2
20:09 17.7 °C 15.5 °C 1025.3 hPa Calm   7.2 km/h 87% 0.0 mm 0 W/m2
20:14 17.7 °C 15.7 °C 1025.6 hPa SE 1.1 km/h 7.2 km/h 88% 0.0 mm 0 W/m2
20:19 17.7 °C 15.7 °C 1025.6 hPa SSE 2.6 km/h 3.5 km/h 88% 0.0 mm 0 W/m2
20:29 17.6 °C 15.6 °C 1025.6 hPa SSE 1.1 km/h 5.0 km/h 88% 0.0 mm 0 W/m2
20:34 17.6 °C 15.6 °C 1025.6 hPa Calm   5.0 km/h 88% 0.0 mm 0 W/m2
20:39 17.6 °C 15.6 °C 1026.0 hPa SSE 2.6 km/h 5.0 km/h 88% 0.0 mm 0 W/m2
20:44 17.5 °C 15.5 °C 1026.0 hPa South 1.1 km/h 5.0 km/h 88% 0.0 mm 0 W/m2
20:49 17.5 °C 15.7 °C 1026.0 hPa South 2.6 km/h 7.2 km/h 89% 0.0 mm 0 W/m2
20:54 17.5 °C 15.7 °C 1026.0 hPa South 1.1 km/h 7.2 km/h 89% 0.0 mm 0 W/m2
20:59 17.5 °C 15.7 °C 1026.0 hPa South 5.0 km/h 8.7 km/h 89% 0.0 mm 0 W/m2
21:04 17.5 °C 15.7 °C 1026.0 hPa Calm   8.7 km/h 89% 0.0 mm 0 W/m2
21:09 17.4 °C 15.6 °C 1026.0 hPa SSE 1.1 km/h 8.7 km/h 89% 0.0 mm 0 W/m2
21:14 17.4 °C 15.6 °C 1026.0 hPa SE 3.5 km/h 8.7 km/h 89% 0.0 mm 0 W/m2
21:24 17.3 °C 15.5 °C 1026.0 hPa Calm   7.2 km/h 89% 0.0 mm 0 W/m2
21:29 17.3 °C 15.5 °C 1026.3 hPa ESE 2.6 km/h 6.1 km/h 89% 0.0 mm 0 W/m2
21:34 17.3 °C 15.7 °C 1026.3 hPa Calm   5.0 km/h 90% 0.0 mm 0 W/m2
21:39 17.3 °C 15.7 °C 1026.0 hPa SSE 3.5 km/h 6.1 km/h 90% 0.0 mm 0 W/m2
21:44 17.3 °C 15.7 °C 1026.3 hPa SSE 1.1 km/h 6.1 km/h 90% 0.0 mm 0 W/m2
21:49 17.3 °C 15.7 °C 1026.3 hPa Calm   6.1 km/h 90% 0.0 mm 0 W/m2
21:54 17.3 °C 15.7 °C 1026.3 hPa Calm   3.5 km/h 90% 0.0 mm 0 W/m2
21:59 17.3 °C 15.8 °C 1026.3 hPa Calm   3.5 km/h 91% 0.0 mm 0 W/m2
22:04 17.3 °C 15.8 °C 1026.3 hPa SSE 2.6 km/h 3.5 km/h 91% 0.0 mm 0 W/m2
22:09 17.2 °C 15.7 °C 1026.3 hPa Calm   3.5 km/h 91% 0.0 mm 0 W/m2
22:14 17.2 °C 15.7 °C 1026.3 hPa Calm   3.5 km/h 91% 0.0 mm 0 W/m2
22:19 17.2 °C 15.7 °C 1026.6 hPa Calm   2.6 km/h 91% 0.0 mm 0 W/m2
22:24 17.1 °C 15.6 °C 1026.3 hPa Calm   2.6 km/h 91% 0.0 mm 0 W/m2
22:29 17.1 °C 15.8 °C 1026.3 hPa Calm     92% 0.0 mm 0 W/m2
22:34 17.1 °C 15.8 °C 1026.3 hPa Calm   2.6 km/h 92% 0.0 mm 0 W/m2
22:39 17.0 °C 15.7 °C 1026.3 hPa Calm   2.6 km/h 92% 0.0 mm 0 W/m2
22:44 17.0 °C 15.7 °C 1026.6 hPa Calm   1.1 km/h 92% 0.0 mm 0 W/m2
22:49 17.0 °C 15.7 °C 1026.3 hPa Calm     92% 0.0 mm 0 W/m2
23:09 16.9 °C 15.8 °C 1026.3 hPa Calm     93% 0.0 mm 0 W/m2
23:11 16.9 °C 15.8 °C 1026.3 hPa Calm     93% 0.0 mm 0 W/m2
23:16 16.9 °C 15.8 °C 1026.3 hPa Calm     93% 0.0 mm 0 W/m2
23:21 16.9 °C 15.8 °C 1026.3 hPa Calm     93% 0.0 mm 0 W/m2
23:26 16.9 °C 15.8 °C 1026.0 hPa Calm     93% 0.0 mm 0 W/m2
23:31 16.8 °C 15.8 °C 1026.0 hPa Calm     94% 0.0 mm 0 W/m2
23:33 16.8 °C 15.8 °C 1026.3 hPa Calm     94% 0.0 mm 0 W/m2
23:38 16.8 °C 15.8 °C 1026.3 hPa Calm   1.1 km/h 94% 0.0 mm 0 W/m2
23:43 16.8 °C 15.8 °C 1026.3 hPa Calm   1.1 km/h 94% 0.0 mm 0 W/m2
23:48 16.8 °C 15.8 °C 1026.0 hPa Calm   3.5 km/h 94% 0.0 mm 0 W/m2
23:53 16.8 °C 15.8 °C 1026.0 hPa North 1.1 km/h 3.5 km/h 94% 0.0 mm 0 W/m2
23:58 16.8 °C 16.0 °C 1026.3 hPa North 1.1 km/h 5.0 km/h 95% 0.0 mm 0 W/m2
Northern Hawkes Bay. New Zealand Historic Data
Compliments of Weather Underground - 2 mb